This is the latest recevied weather packets stored in our database for station/object OE5HCE. If no packets are shown the sender has not sent any weather packets the latest 10 day(s).
| Time | Temp. | Humidity | Pressure | Rain* | Wind** | Luminosity | Snow |
|---|---|---|---|---|---|---|---|
| 1777545014 | 11.67° C | 34% | 1030.7 hPa | 0 mm | - | 803 W/m² | - |
| 1777544110 | 11.67° C | 36% | 1031 hPa | 0 mm | - | 795 W/m² | - |
| 1777543207 | 11.11° C | 38% | 1031.1 hPa | 0 mm | - | 780 W/m² | - |
| 1777542304 | 10.56° C | 40% | 1031.2 hPa | 0 mm | - | 766 W/m² | - |
| 1777541465 | 10.56° C | 41% | 1031.4 hPa | 0 mm | - | 747 W/m² | - |
| 1777540556 | 10° C | 42% | 1031.4 hPa | 0 mm | - | 721 W/m² | - |
| 1777539693 | 9.44° C | 43% | 1031.6 hPa | 0 mm | - | 438 W/m² | - |
| 1777538752 | 9.44° C | 43% | 1031.8 hPa | 0 mm | - | 227 W/m² | - |
| 1777537848 | 8.89° C | 44% | 1031.6 hPa | 0 mm | - | 37 W/m² | - |
| 1777536946 | 8.89° C | 44% | 1031.6 hPa | 0 mm | - | 35 W/m² | - |
| 1777536044 | 8.33° C | 44% | 1031.5 hPa | 0 mm | - | 35 W/m² | - |
| 1777535142 | 7.78° C | 45% | 1031.4 hPa | 0 mm | - | 35 W/m² | - |
| 1777534239 | 7.22° C | 45% | 1031.4 hPa | 0 mm | - | 51 W/m² | - |
| 1777533338 | 7.22° C | 46% | 1031.5 hPa | 0 mm | - | 369 W/m² | - |
| 1777532436 | 6.67° C | 47% | 1031.4 hPa | 0 mm | - | 450 W/m² | - |
| 1777531530 | 6.11° C | 50% | 1031.5 hPa | 0 mm | - | 410 W/m² | - |
| 1777530629 | 6.11° C | 52% | 1031.6 hPa | 0 mm | - | 373 W/m² | - |
| 1777529719 | 5.56° C | 54% | 1031.5 hPa | 0 mm | - | 330 W/m² | - |
| 1777528814 | 5° C | 55% | 1031.3 hPa | 0 mm | - | 287 W/m² | - |
| 1777527910 | 4.44° C | 57% | 1031.4 hPa | 0 mm | - | 248 W/m² | - |
| 1777527006 | 3.89° C | 57% | 1031.3 hPa | 0 mm | - | 206 W/m² | - |
| 1777526169 | 3.33° C | 57% | 1031.3 hPa | 0 mm | - | 163 W/m² | - |
| 1777525257 | 2.78° C | 58% | 1031.1 hPa | 0 mm | - | 114 W/m² | - |
| 1777524352 | 2.22° C | 59% | 1030.9 hPa | 0 mm | - | 70 W/m² | - |
| 1777523452 | 2.22° C | 59% | 1030.6 hPa | 0 mm | - | 39 W/m² | - |
* Rain latest hour (hover to see other rain measurements)
** Current wind speed in m/s (hover to see current wind gust speed)